Weather in Shantalovo

Russia / Smolensk Oblast     54°12′28″N   32°33′31″E
temp.,
°C
wind,
m/s
gust,
m/s
humid.,
%
clouds,
%
prec.,
mm/h
press.,
hPa
HPBL,
m
9 may, sun
sun900:00+4nw51179100 0.2 1011547
03:00+2nw61385100 0.2 1014473
06:00+1nw6138661 0.0 1016524
09:00+5nw712685 0.0 10171204
12:00+9nw8105199 0.0 10192047
15:00+11nw794497 0.0 10202338
18:00+11nw57525 0.0 10211884
21:00+5nw33685 0.0 102432
10 may, mon
mon1000:00+4wnw33755 0.0 102625
03:00+3nw22745 0.0 102712
06:00+3e00715 0.0 102810
09:00+9s11575 0.0 1029329
12:00+13ssw11455 0.0 10281262
15:00+15wnw11413 0.0 10281458
18:00+15ne11445 0.0 10271310
21:00+9ne22610 0.0 102813
11 may, tue
tue1100:00+7e33700 0.0 102833
03:00+5ene33710 0.0 102925
06:00+5ene37760 0.0 1029117
09:00+11ene58590 0.0 1028546
12:00+15ene56460 0.0 1027915
15:00+18ene56505 0.0 1025963
18:00+18e58645 0.0 1025987
21:00+12e49876 0.0 1025148
12 may, wed
wed1200:00+11e411946 0.0 1024230
03:00+10e339634 0.0 102356
06:00+10ne389699 0.1 1022259
09:00+8s61193100 1.4 1022552
12:00+9ese23868 0.4 1022318
15:00+15e576066 0.5 10201583
18:00+14e697275 0.4 10191135
21:00+10e4109155 0.9 1018245
13 may, thu
thu1300:00+10ese61289100 0.4 1017692
03:00+10ese61294100 1.4 1016606
06:00+9se6139333 1.8 1016721
09:00+11sse7127816 2.0 10161190
12:00+14sse7107124 0.7 10151362
15:00+16s6963100 0.9 10151659
18:00+14sse4974100 0.1 1015783
21:00+12ese3788100 0.1 1015133